Regional Weather Roundup
Issued by NWS

Home | Current Version | Previous Version | Text Only | Print | Product List | Glossary On
Versions: 1 2 3 4 5 6 7 8 9 10 11 12 13 14 15 16 17 18 19 20 21 22 23 24 25 26 27 28 29 30 31 32 33 34 35 36 37 38 39 40 41 42 43 44 45 46 47 48 49 50
000
ASUS45 KSLC 230610
RWRUT

UTAH REGIONAL WEATHER ROUNDUP
NATIONAL WEATHER SERVICE SALT LAKE CITY UT
1200 AM MDT WED JUL 23 2014

UTZ001>011-023>025-230700-

NORTHERN UTAH

CITY           SKY/WX    TMP DP  RH WIND       PRES   REMARKS
HILL AFB       CLEAR     80  36  20 E16       30.13S
LOGAN          NOT AVBL
OGDEN          CLEAR     79  36  21 SE9       30.09S
PROVO AIRPORT  CLEAR     72  48  43 S3        30.14S
SALT LAKE CITY PTCLDY    78  37  22 SE9       30.08S
VERNAL         CLEAR     73  28  18 NW8       30.21S
WENDOVER       CLEAR     81  37  21 NE6       30.06S
HEBER CITY     CLEAR     55  43  62 CALM      30.24S
WEST JORDAN    CLEAR     77  43  29 CALM      30.13S

$$

UTZ012>022-026-027-230700-

SOUTHERN UTAH

CITY           SKY/WX    TMP DP  RH WIND       PRES   REMARKS
BRYCE CANYON   CLEAR     58  33  39 W7        30.45R
CEDAR CITY     CLEAR     75  33  21 S7        30.26R
MILFORD        CLEAR     73  37  27 S10       30.19R
MOAB/CYNLANDS  CLEAR     76  17  11 W9        30.12R
PRICE          CLEAR     71  14  11 N6        30.27R
ST GEORGE      CLEAR     84  25  11 SE7       30.04R
KANAB            N/A     75  34  22 NE3       30.25R

$$

REGIONAL REPORTS     COLORADO/ARIZONA

CITY           SKY/WX    TMP DP  RH WIND       PRES   REMARKS
CRAIG, CO      CLEAR     49  44  83 CALM      30.34R
GRAND JUNCTION CLEAR     76  25  15 SE6       30.16R
RIFLE          CLEAR     68  37  32 NE3       30.27R
MONTROSE       PTCLDY    74  41  30 S7        30.28R
CORTEZ         CLEAR     83  39  21 SE17G33   30.31R
PAGE, AZ       MOCLDY    92  34  13 S8        30.12S
GRAND CANYON   MOCLDY    68  43  40 CALM      30.37S
KINGMAN        CLEAR     78  27  15 S7        30.09S
FLAGSTAFF      PTCLDY    63  40  42 CALM      30.42R

$$

REGIONAL REPORTS    NEVADA/IDAHO/WYOMING

CITY           SKY/WX    TMP DP  RH WIND       PRES   REMARKS
LAS VEGAS, NV  CLEAR     95  25   8 S12       29.92S
ELY            CLEAR     62  17  17 S14       30.28R
ELKO           CLEAR     73  28  18 W5        30.10R
POCATELLO, ID  CLEAR     65  46  50 E6        30.09F
BURLEY         CLEAR     62  48  60 CALM      30.02F
EVANSTON, WY   CLEAR     66  35  31 S6        30.37S
ROCK SPRINGS   CLEAR     72  23  16 SE9       30.36S

$$


USA.gov is the U.S. government's official web portal to all federal, state and local government web resources and services.